COSMOS 2251 DEB

Satellite information

Favourite Embed

Satellite Type and Status

DEBRISIN ORBIT

Key statistics

Satellite COSMOS 2251 DEB at a glance.

Uptime

11823

Days in orbit

Revolutions

≈ 14.9

Per day

Orbit

LEO

Low Earth Orbit

Inclination

74.0

Latest

Satellite identification and parameters

Extended collection of information and parameters for COSMOS 2251 DEB.

Object identification

Identified? True

Debris? True

Object name: COSMOS 2251 DEB

International designator: 1993-036KP

Object number (NORAD): 34118

Object ID (CCSDS): 34118

Country: COMMONWEALTH OF INDEPENDENT STATES (CIS)

Current information (Y/N): Y

RCS size: SMALL

Orbital parameters

Period: 96.544 minutes

Inclination: 73.9543 deg

SMA: 6971.235 km

Apoapsis: 636.342 km

Periapsis: 549.858 km

RAAN: 342.7065 deg

Eccentricy: 0.00620293

Argument of periapsis: 185.3205 deg

Mean anomaly: 289.0549 deg

Mean motion: 14.91551267 rev/day

Mean motion (dot): 0.00018372 rev/day2

B* drag term: 0.0017651834 1/REarth

Two-line elements (TLE)

Creation date: Oct. 28, 2025, 2:18 a.m.

Reference frame: TEME

Reference center: EARTH

Epoch: Oct. 27, 2025, 11:49 a.m. UTC

TLE line 0: 0 COSMOS 2251 DEB

TLE line 1: 1 34118U 93036KP 25300.49255501 .00018372 00000-0 17652-2 0 9993

TLE line 2: 2 34118 73.9543 342.7065 0062029 185.3205 289.0549 14.91551267884862

Live tracking on map

Real-time ground track for satellite COSMOS 2251 DEB.

In-orbit conjunctions

A list of the most updated potential collisions computed for object COSMOS 2251 DEB.

Target Orbit TCA Probability of collision Miss distance Type
GSLV R/B LEO 2025-10-01 09:40:18 0.0001062615 67.0 (m) ROCKET BODY

Associated space launch

Military communications satellite. Destroyed in a collision with Iridium 33.

COSMOS 2251 DEB was lifted into orbit during the mission ‘Kosmos-3M | Strela-2M 51’, on board a Kosmos-3M space rocket.

The launch took place on June 16, 1993, 4:17 a.m. from 132/1 (132L).

For more information about the launch, click the button.

Launch to space Kosmos-3M | Strela-2M 51
Kosmos-3M | Strela-2M 51

Agency: N/A

Status: Launch Successful

Launch date: June 16, 1993, 4:17 a.m. UTC

Rocket: Kosmos-3M

Launch pad: 132/1 (132L)

Location: Plesetsk Cosmodrome, Russian Federation

...

Latest news about this satellite

There are no fresh news available about this satellite. Check back as we update our databases every day.


Newsletter sign-up

Weekly statistics, charts and insights to help you stay on top of the space industry.